Location: NJAA Observatory
(40.6819°N, 74.8979°W)
Time: 10:31:40
(UTC-04:00)

Transit 2A Rocket - Visible Passes

Search period start: 26 May 2016 00:00
Search period end: 05 June 2016 00:00
Orbit: 585 x 920 km, 66.7° (Epoch: 25 May)

Date Brightness Start Highest point End Pass type
(mag) Time Alt. Az. Time Alt. Az. Time Alt. Az.
26 May 8.3 04:07:30 10° N 04:11:53 20° NE 04:16:15 10° E visible
26 May 8.0 22:07:50 10° W 22:11:40 20° NW 22:15:44 10° N visible
27 May 8.6 03:25:59 10° N 03:29:01 14° NE 03:32:04 10° ENE visible
27 May 7.3 21:24:24 10° WSW 21:28:57 29° NW 21:33:53 10° NNE visible
28 May 7.1 04:24:48 10° NNW 04:30:30 38° NE 04:36:07 10° ESE visible
28 May 8.8 22:29:36 10° NW 22:30:38 10° NNW 22:31:40 10° NNW visible
29 May 7.7 03:42:50 10° N 03:47:52 26° NE 03:52:52 10° E visible
29 May 8.4 21:44:33 10° WNW 21:47:41 15° NW 21:50:58 10° N visible
30 May 8.2 03:01:04 10° N 03:05:06 18° NE 03:09:07 10° E visible
30 May 5.6 04:42:33 10° NNW 04:48:44 80° ENE 04:54:46 10° SSE visible
30 May 8.0 21:00:44 10° W 21:04:53 22° NW 21:09:19 10° N visible
31 May 8.5 02:19:44 10° N 02:22:12 12° NE 02:24:39 10° ENE visible
31 May 6.3 04:00:21 10° NNW 04:06:20 51° NE 04:12:12 10° SE visible
01 Jun 7.1 03:18:16 10° NNW 03:23:47 33° NE 03:29:13 10° ESE visible
01 Jun 8.5 21:21:43 10° NW 21:23:46 12° NNW 21:25:54 10° NNW visible
02 Jun 7.7 02:36:21 10° N 02:41:07 23° NE 02:45:50 10° E visible
02 Jun 5.3 04:18:16 10° NNW 04:24:26 75° WSW 04:30:24 10° SSE visible
03 Jun 8.1 01:54:40 10° N 01:58:18 16° NE 02:01:55 10° ENE visible
03 Jun 5.7 03:35:57 10° NNW 03:42:06 70° ENE 03:48:06 10° SE visible
04 Jun 8.3 01:13:40 10° NNE 01:15:21 11° NNE 01:17:02 10° NE visible
04 Jun 6.5 02:53:46 10° NNW 02:59:39 44° NE 03:05:24 10° SE visible
04 Jun 6.0 04:36:47 10° NW 04:42:10 33° WSW 04:47:23 10° S visible
